CZ-4 DEB

Satellite information

Favourite Embed

Satellite Type and Status

DEBRISIN ORBIT

Key statistics

Satellite CZ-4 DEB at a glance.

Uptime

12886

Days in orbit

Revolutions

≈ 14.3

Per day

Orbit

SSO

Sun Synchronous Orbit

Inclination

98.6

Latest

Satellite identification and parameters

Extended collection of information and parameters for CZ-4 DEB.

Object identification

Identified? True

Debris? True

Object name: CZ-4 DEB

International designator: 1990-081CG

Object number (NORAD): 20974

Object ID (CCSDS): 20974

Country: PEOPLES REPUBLIC OF CHINA (PRC)

Current information (Y/N): Y

RCS size: SMALL

Orbital parameters

Period: 100.417 minutes

Inclination: 98.5552 deg

SMA: 7156.454 km

Apoapsis: 788.329 km

Periapsis: 768.309 km

RAAN: 342.6391 deg

Eccentricy: 0.00139876

Argument of periapsis: 166.6194 deg

Mean anomaly: 224.087 deg

Mean motion: 14.34022357 rev/day

Mean motion (dot): 0.0000289 rev/day2

B* drag term: 0.0010490257 1/REarth

Two-line elements (TLE)

Creation date: Dec. 13, 2025, 4:32 a.m.

Reference frame: TEME

Reference center: EARTH

Epoch: Dec. 12, 2025, 10:06 p.m. UTC

TLE line 0: 0 CZ-4 DEB

TLE line 1: 1 20974U 90081CG 25346.92140613 .00002890 00000-0 10490-2 0 9991

TLE line 2: 2 20974 98.5552 342.6391 0013988 166.6194 224.0870 14.34022357823050

Live tracking on map

Real-time ground track for satellite CZ-4 DEB.

In-orbit conjunctions

A list of the most updated potential collisions computed for object CZ-4 DEB.

Target Orbit TCA Probability of collision Miss distance Type
CZ-6A DEB LEO 2025-02-20 17:54:52 0.003018312 200.0 (m) DEBRIS
SL-8 R/B LEO 2024-09-20 18:37:02 0.000244301 477.0 (m) ROCKET BODY

Associated space launch

Chinese polar orbiting meteorological satellite

CZ-4 DEB was lifted into orbit during the mission ‘Long March 4A | Feng Yun 1B’, on board a Long March 4A space rocket.

The launch took place on Sept. 3, 1990, 12:53 a.m. from Launch Complex 7.

For more information about the launch, click the button.

Launch to space Long March 4A | Feng Yun 1B
Long March 4A | Feng Yun 1B

Agency: N/A

Status: Launch Successful

Launch date: Sept. 3, 1990, 12:53 a.m. UTC

Rocket: Long March 4A

Launch pad: Launch Complex 7

Location: Taiyuan Satellite Launch Center, People's Republic of China

...

Latest news about this satellite

There are no fresh news available about this satellite. Check back as we update our databases every day.


Newsletter sign-up

Weekly statistics, charts and insights to help you stay on top of the space industry.